Starlink 32949

operational
NORAD ID: 63145 Int'l Des: 2025-043 Owner: SPXS Country: US Constellation: starlink
LEOCIRCULAR

About Starlink 32949

Description loading...

Live Position

Loading 3D Globe...

Upcoming Passes

Altitude History

Altitude vs Time

uPlot chart will show altitude changes over time

Two-Line Element Set

1 63145U 25043P 26034.52206309 .00024056 00000-0 88028-3 0 9991
2 63145 43.0000 209.4646 0000710 344.9348 15.1482 15.27601360 52708
Epoch: Feb 3, 2026 • Age: 21 hours

Current Status

Altitude 490.2 km
Velocity 7.62 km/s
Sub-Earth Point -27.40°S, 134.95°E
Launch Date Mar 3, 2025
Age 0.9 years
Type internet

Technical Details

Classification Payload
Mass 730.00 kg
Dry Mass 700.00 kg
Total Mass 730.00 kg
Length 0.30 m
Diameter 4.10 m
Span 29.00 m
Shape Box + pan
Manufacturer SPXS
Bus Type Starlink V2M
Phase Status In Orbit
Owner/State SPXS/US

Large Constellations

Loading constellations...